Retour au catalogue

SCOUT D-1 R/B

ActifPO
NORAD 7228·ROCKET BODY·🇺🇸 United States

Lancé Mar 9, 1974 depuis Vandenberg Space Force Base

Loading…

Prochains Passages (prochaines 24 heures)

TLE

FraisSource: Space-Track

Époque: Sep 14, 2026, 18:56 UTC

1 07228U 74013B   26257.78907868  .00000375  00000-0  11179-3 0  9996
2 07228  97.7839  85.8318 0104790 152.7525 207.9221 14.44884819730773

Suivez SCOUT D-1 R/B en temps réel avec AllMySat

Download on the App Store